闪电 3-8星 (MOLNIYA 3-8)

导读 | 星芒AI

MOLNIYA 3-8 是一颗俄罗斯通信卫星,由 Energiya 公司制造,于 1988 年 12 月 15 日发射。它运行在高度椭圆轨道(Molniya 轨道),主要用于苏联的通信和电视广播。该卫星设计寿命为 5 年,搭载了多个通信转发器,工作在 C 波段。MOLNIYA 系列卫星在苏联及后来的俄罗斯通信系统中发挥了重要作用,特别是在高纬度地区提供稳定的通信服务。

基本信息
目录编号:
10455
目录名称:
MOLNIYA 3-8
国际标识:
1977-105A
轨道中心:
EARTH
卫星名称:
闪电 3-8星
卫星全名:
闪电 3-8星 (MOLNIYA 3-8)
卫星状态:
在轨 (已飞行17533 天)
发射日期:
1977-10-28 UTC
国别 :
俄罗斯(独联体) (CIS)
星等 :
--
轨道信息
数据来源 国际轨道数据 AOE轨道数据
星历时间 2025-10-28T13:29:24+0800
1天前
查看轨道信息
2025-10-26T13:00:00+0800
3天前
查看轨道信息
半长轴 26571.832km 26571.355km
偏心率 0.6777935 0.67788
轨道倾角 63.703° 63.708°
近地点辐角 278.831° 278.849°
升交点赤经 200.088° 200.296°
平近点角 15.688° 357.798°
近地点 2183.481km 2181.029km
远地点 38203.913km 38205.411km
周期 718.442分钟 718.423分钟
每日圈数 2.004336 2.00439
详细信息
平衡模式:
三轴稳定
覆盖范围:
全球
运营商:
俄罗斯国家航天集团
运营商所在国:
俄罗斯
制造商(研发单位):
普里克拉德诺伊·梅哈尼基设计局
制造商所在国:
俄罗斯联邦
使用方式:
暂无
卫星简介
闪电(Molniya (Satellite))系列卫星是苏联/俄罗斯于1965年至2004年间发射的军事和通信卫星。这些卫星使用高度偏心的椭圆轨道,称为Molniya轨道(即闪电轨道),在高纬度地区具有较长的停留时间。该卫星状态未知。
2D轨道图
3D轨道图
轨道高度分析图
轨道倾角分析图
轨道综合分析图
查看轨道综合分析图